Weather History for Worcester, MA

Change the Weather History Date:

Monday, November 14, 2011

  Actual Average Record
Temperature  
Mean Temperature 57 °F 41 °F  
Max Temperature 64 °F 48 °F 68 °F (1959)
Min Temperature 49 °F 34 °F 10 °F (1986)
Degree Days  
Heating Degree Days 8 24  
Month to date heating degree days 246 308  
Since 1 July heating degree days 724 969  
Cooling Degree Days 0 0  
Month to date cooling degree days 0 0  
Year to date cooling degree days 638 471  
Growing Degree Days 5 (Base 50)    
Moisture  
Dew Point 44 °F    
Average Humidity 71    
Maximum Humidity 93    
Minimum Humidity 48    
Precipitation  
Precipitation 0.00 in 0.14 in 1.58 in (2009)
Month to date precipitation 0.82 1.96  
Year to date precipitation 58.29 41.93  
Snow  
Snow 0.00 in 0.10 in 2.20 in (1972)
Month to date snowfall 0.0 0.7  
Since 1 July snowfall 16.0 0.9  
Since 1 September snowfall 16.0 0.9  
Snow Depth 0.00 in    
Sea Level Pressure  
Sea Level Pressure 29.84 in    
Wind  
Wind Speed 14 mph (SW)    
Max Wind Speed 22 mph    
Max Gust Speed 29 mph    
Visibility 10 miles    
Events      
T = Trace of Precipitation, MM = Missing Value Source: NWS Daily Summary

Daily Weather History Graph

Daily Weather History Graph

Search for Another Location

Airport:

Trip Planner

Search our weather history database for the weather conditions in past years. The results will help you decide how hot, cold, wet, or windy it might be!

Date:

Astronomy

Nov. 14, 2011 Rise Set
Actual Time 6:36 AM EST 4:26 PM EST
Civil Twilight 6:06 AM EST 4:56 PM EST
Nautical Twilight 5:32 AM EST 5:30 PM EST
Astronomical Twilight 4:59 AM EST 6:03 PM EST
Moon 7:29 PM EST (11/14) 9:54 AM EST (11/14)
Length of Visible Light 10h 50m
Length of Day
9h 50m
Waning Gibbous, 87% of the Moon is Illuminated
Nov 14
Waning Gibbous
Nov 18
Last Quarter
Nov 25
New
Dec 2
First Quarter
Dec 10
Full

Hourly Weather History & Observations

Time (EST) Temp. Dew Point Humidity Pressure Visibility Wind Dir Wind Speed Gust Speed Precip Events Conditions
12:54 AM 52.0 °F 39.9 °F 63% 29.94 in 10.0 mi SW 13.8 mph 21.9 mph N/A   Overcast
1:54 AM 52.0 °F 42.1 °F 69% 29.92 in 10.0 mi SSW 13.8 mph 21.9 mph N/A   Mostly Cloudy
2:54 AM 51.1 °F 42.1 °F 71% 29.90 in 10.0 mi SW 16.1 mph - N/A   Clear
3:54 AM 50.0 °F 42.1 °F 74% 29.91 in 10.0 mi SW 16.1 mph 23.0 mph N/A   Clear
4:54 AM 50.0 °F 39.9 °F 68% 29.90 in 10.0 mi SW 15.0 mph - N/A   Clear
5:54 AM 48.9 °F 39.9 °F 71% 29.91 in 10.0 mi SW 15.0 mph - N/A   Clear
6:54 AM 48.2 °F 39.2 °F 71% 29.88 in 10.0 mi SW 13.8 mph - N/A   Clear
7:54 AM 51.1 °F 39.0 °F 63% 29.91 in 10.0 mi SW 16.1 mph - N/A   Clear
8:54 AM 54.0 °F 39.9 °F 59% 29.89 in 10.0 mi SW 17.3 mph 20.7 mph N/A   Clear
9:54 AM 57.9 °F 39.9 °F 51% 29.89 in 10.0 mi SW 17.3 mph - N/A   Clear
10:54 AM 61.0 °F 41.0 °F 48% 29.88 in 10.0 mi WSW 18.4 mph - N/A   Clear
11:54 AM 59.0 °F 42.1 °F 53% 29.86 in 10.0 mi SW 11.5 mph - N/A   Overcast
12:54 PM 62.1 °F 43.0 °F 50% 29.83 in 10.0 mi SW 17.3 mph 21.9 mph N/A   Scattered Clouds
1:54 PM 62.6 °F 44.6 °F 52% 29.81 in 10.0 mi SW 17.3 mph 21.9 mph N/A   Mostly Cloudy
2:54 PM 61.0 °F 45.0 °F 56% 29.82 in 10.0 mi SW 11.5 mph - N/A   Overcast
3:54 PM 60.1 °F 45.0 °F 57% 29.82 in 10.0 mi SSW 8.1 mph - N/A   Overcast
4:54 PM 57.9 °F 45.0 °F 62% 29.81 in 10.0 mi SW 10.4 mph - N/A   Overcast
5:54 PM 57.9 °F 46.0 °F 65% 29.80 in 10.0 mi SSW 11.5 mph - N/A   Mostly Cloudy
6:54 PM 55.9 °F 46.9 °F 72% 29.80 in 10.0 mi SSW 12.7 mph - N/A   Mostly Cloudy
7:54 PM 55.0 °F 48.9 °F 80% 29.79 in 10.0 mi SSW 9.2 mph - N/A   Overcast
8:54 PM 55.9 °F 50.0 °F 80% 29.77 in 10.0 mi South 10.4 mph - N/A   Clear
9:54 PM 54.0 °F 51.1 °F 90% 29.75 in 10.0 mi SSW 10.4 mph - N/A   Overcast
10:54 PM 55.0 °F 51.1 °F 86% 29.72 in 10.0 mi SW 12.7 mph - N/A   Partly Cloudy
11:54 PM 55.9 °F 51.1 °F 84% 29.69 in 10.0 mi SW 13.8 mph - N/A   Scattered Clouds